logo tempoitalia

Diretta Meteo Hearne, Stati Uniti (USA)lunedì 31 agosto ore 01:35

Mappa
Sereno 27 °C Sereno 24 Ore: T.min 24 T.max 38
Ponente Sud/Sud-Est Km/h 11.1 Punto di rugiada: 23 °C Umidità: 78% Visibilità: 10 Km
Il sole sorge alle: 07:02 Il sole tramonta alle: 19:51
31 Agosto 2026 01:35 tempo osservato: Sereno Sereno 27 78 1015 vento: Nord S/SE 11.1
31 Agosto 2026 01:15 tempo osservato: Sereno Sereno 26 83 1015 vento: Nord SE 11.1
31 Agosto 2026 00:55 tempo osservato: Sereno Sereno 27 78 1015 vento: Nord SE 9.3
31 Agosto 2026 00:35 tempo osservato: Sereno Sereno 27 78 1015 vento: Nord SE 7.4
31 Agosto 2026 00:15 tempo osservato: Sereno Sereno 27 74 1015 vento: Nord S/SE 11.1
30 Agosto 2026 23:55 tempo osservato: Sereno Sereno 28 69 1015 vento: Nord S/SE 11.1
30 Agosto 2026 23:35 tempo osservato: Sereno Sereno 28 65 1015 vento: Nord SE 9.3
30 Agosto 2026 23:15 tempo osservato: Sereno Sereno 28 65 1014 vento: Nord SE 9.3
30 Agosto 2026 22:55 tempo osservato: Sereno Sereno 28 65 1014 vento: Nord SE 9.3
30 Agosto 2026 22:35 tempo osservato: Sereno Sereno 29 58 1014 vento: Nord SE 7.4
30 Agosto 2026 22:15 tempo osservato: Sereno Sereno 30 55 1014 vento: Nord SE 11.1
30 Agosto 2026 21:55 tempo osservato: Sereno Sereno 30 55 1013 vento: Nord S/SE 13
30 Agosto 2026 21:35 tempo osservato: Sereno Sereno 30 51 1013 vento: Nord S/SE 9.3
30 Agosto 2026 21:15 tempo osservato: Sereno Sereno 31 48 1013 vento: Nord SE 9.3
30 Agosto 2026 20:55 tempo osservato: Sereno Sereno 31 48 1012 vento: Nord S/SE 7.4
30 Agosto 2026 20:35 tempo osservato: Sereno Sereno 32 46 1012 vento: Nord SE 9.3
30 Agosto 2026 20:15 tempo osservato: Sereno Sereno 32 46 1012 vento: Nord S/SE 7.4
30 Agosto 2026 19:55 tempo osservato: Sereno Sereno 33 43 1012 vento: Nord S/SE 9.3
30 Agosto 2026 19:35 tempo osservato: Sereno Sereno 35 39 1012 vento: Nord S/SE 7.4
30 Agosto 2026 19:15 tempo osservato: Sereno Sereno 36 36 1012 vento: Nord S/SE 11.1
30 Agosto 2026 18:55 tempo osservato: Sereno Sereno 36 34 1012 vento: Nord S 16.7
30 Agosto 2026 18:35 tempo osservato: Sereno Sereno 37 32 1012 vento: Nord S/SE 14.8
30 Agosto 2026 18:15 tempo osservato: Sereno Sereno 37 35 1012 vento: Nord S 14.8
30 Agosto 2026 17:55 tempo osservato: Sereno Sereno 37 32 1012 vento: Nord SE 14.8
30 Agosto 2026 17:35 tempo osservato: Sereno Sereno 37 32 1012 vento: Nord S/SE 11.1
30 Agosto 2026 17:15 tempo osservato: Sereno Sereno 38 31 1012 vento: Nord N 11.1
30 Agosto 2026 16:55 tempo osservato: Sereno Sereno 38 31 1012 vento: Nord N 9.3
30 Agosto 2026 16:35 tempo osservato: Sereno Sereno 38 33 1013 vento: Nord SE 14.8
30 Agosto 2026 16:15 tempo osservato: Sereno Sereno 38 31 1013 vento: Nord S 14.8
30 Agosto 2026 15:55 tempo osservato: Sereno Sereno 38 31 1013 vento: Nord N 11.1
30 Agosto 2026 15:36 tempo osservato: Sereno Sereno 37 35 1014 vento: Nord SE 16.7
30 Agosto 2026 15:15 tempo osservato: Sereno Sereno 37 37 1014 vento: Nord SE 16.7
30 Agosto 2026 14:55 tempo osservato: Sereno Sereno 37 35 1014 vento: Nord SE 16.7
30 Agosto 2026 14:35 tempo osservato: Sereno Sereno 36 41 1015 vento: Nord S/SE 14.8
30 Agosto 2026 14:15 tempo osservato: Sereno Sereno 37 37 1015 vento: Nord S/SE 16.7
30 Agosto 2026 13:55 tempo osservato: Sereno Sereno 36 41 1015 vento: Nord S 14.8
30 Agosto 2026 13:35 tempo osservato: Sereno Sereno 35 44 1016 vento: Nord N 9.3
30 Agosto 2026 13:15 tempo osservato: Sereno Sereno 35 44 1016 vento: Nord SE 13
30 Agosto 2026 12:55 tempo osservato: Sereno Sereno 34 49 1016 vento: Nord N 11.1
30 Agosto 2026 12:35 tempo osservato: Sereno Sereno 34 49 1016 vento: Nord S 13
30 Agosto 2026 12:15 tempo osservato: Poco Nuvoloso Poco Nuvoloso 34 49 1017 vento: Nord S 14.8
30 Agosto 2026 11:55 tempo osservato: Nuvoloso Nuvoloso 34 52 1017 vento: Nord SO 13
30 Agosto 2026 11:35 tempo osservato: Sereno Sereno 33 55 1017 vento: Nord N 9.3
30 Agosto 2026 11:15 tempo osservato: Sereno Sereno 32 59 1017 vento: Nord S 18.5
30 Agosto 2026 10:55 tempo osservato: Sereno Sereno 32 62 1017 vento: Nord S 14.8
30 Agosto 2026 10:35 tempo osservato: Sereno Sereno 31 66 1017 vento: Nord S 14.8
30 Agosto 2026 10:15 tempo osservato: Sereno Sereno 30 70 1017 vento: Nord S 16.7
30 Agosto 2026 09:55 tempo osservato: Poco Nuvoloso Poco Nuvoloso 29 79 1017 vento: Nord S 14.8
30 Agosto 2026 09:35 tempo osservato: Poco Nuvoloso Poco Nuvoloso 28 83 1017 vento: Nord S 11.1
30 Agosto 2026 09:15 tempo osservato: Poco Nuvoloso Poco Nuvoloso 28 83 1017 vento: Nord S 11.1
30 Agosto 2026 08:55 tempo osservato: Nuvoloso Nuvoloso 27 88 1017 vento: Nord S/SE 9.3
30 Agosto 2026 08:35 tempo osservato: Nuvoloso Nuvoloso 26 94 1017 vento: Nord S 9.3
30 Agosto 2026 08:15 tempo osservato: Sereno Sereno 26 94 1017 vento: Nord S/SE 9.3
30 Agosto 2026 07:55 tempo osservato: Sereno Sereno 25 100 1017 vento: Nord N 3.7
30 Agosto 2026 07:35 tempo osservato: Sereno Sereno 25 94 1017 vento: Nord N 5.5
30 Agosto 2026 07:15 tempo osservato: Sereno Sereno 24 100 1016 vento: Nord N 5.5
30 Agosto 2026 06:55 tempo osservato: Sereno Sereno 24 100 1016 vento: Nord N 5.5
30 Agosto 2026 06:35 tempo osservato: Sereno Sereno 24 100 1016 vento: Nord N 5.5
30 Agosto 2026 06:15 tempo osservato: Sereno Sereno 24 100 1016 vento: Nord N 3.7
30 Agosto 2026 05:55 tempo osservato: Sereno Sereno 25 94 1016 vento: Nord N 5.5
30 Agosto 2026 05:35 tempo osservato: Sereno Sereno 25 94 1016 vento: Nord N 5.5
30 Agosto 2026 05:15 tempo osservato: Sereno Sereno 25 94 1016 vento: Nord N 5.5
30 Agosto 2026 04:55 tempo osservato: Sereno Sereno 25 94 1015 vento: Nord N 3.7
30 Agosto 2026 04:35 tempo osservato: Sereno Sereno 25 94 1015 vento: Nord N 3.7
30 Agosto 2026 04:15 tempo osservato: Sereno Sereno 25 94 1015 vento: Nord N 3.7
30 Agosto 2026 03:55 tempo osservato: Sereno Sereno 25 94 1015 vento: Nord N 3.7
30 Agosto 2026 03:35 tempo osservato: Sereno Sereno 26 88 1015 vento: Nord N 5.5
30 Agosto 2026 03:15 tempo osservato: Sereno Sereno 26 88 1015 vento: Nord S/SE 7.4
30 Agosto 2026 02:55 tempo osservato: Sereno Sereno 26 88 1015 vento: Nord S 9.3
30 Agosto 2026 02:35 tempo osservato: Sereno Sereno 27 83 1015 vento: Nord N 0
30 Agosto 2026 02:15 tempo osservato: Sereno Sereno 27 83 1016 vento: Nord N 0
30 Agosto 2026 01:55 tempo osservato: Sereno Sereno 27 83 1016 vento: Nord N 0
30 Agosto 2026 01:35 tempo osservato: Sereno Sereno 27 83 1015 vento: Nord N 0